TimeCST,TemperatureF,Dew PointF,Humidity,Sea Level PressureIn,VisibilityMPH,Wind Direction,Wind SpeedMPH,Gust SpeedMPH,PrecipitationIn,Events,Conditions,WindDirDegrees,DateUTC
12:15 AM,36.9,32.9,86,29.86,10.0,SSE,3.5,-,N/A,,Clear,150,2013-11-16 06:15:00
12:35 AM,36.9,32.5,84,29.86,10.0,SSE,4.6,-,N/A,,Clear,150,2013-11-16 06:35:00
12:55 AM,36.5,32.5,86,29.86,10.0,SSE,5.8,-,N/A,,Clear,150,2013-11-16 06:55:00
1:15 AM,36.0,33.3,90,29.86,10.0,SSE,6.9,-,N/A,,Clear,150,2013-11-16 07:15:00
1:35 AM,36.9,34.0,89,29.85,10.0,SSE,5.8,-,N/A,,Clear,150,2013-11-16 07:35:00
1:55 AM,37.8,34.7,89,29.85,10.0,SSE,6.9,-,N/A,,Clear,150,2013-11-16 07:55:00
2:15 AM,37.4,34.7,90,29.85,10.0,SE,4.6,-,N/A,,Clear,140,2013-11-16 08:15:00
2:35 AM,37.0,34.7,91,29.84,10.0,SE,6.9,-,N/A,,Clear,140,2013-11-16 08:35:00
2:55 AM,35.8,33.8,92,29.83,10.0,SE,5.8,-,N/A,,Clear,130,2013-11-16 08:55:00
3:15 AM,35.8,34.0,93,29.83,10.0,SE,8.1,-,N/A,,Clear,140,2013-11-16 09:15:00
3:35 AM,39.2,37.2,93,29.84,10.0,SSE,8.1,-,N/A,,Mostly Cloudy,150,2013-11-16 09:35:00
3:55 AM,41.0,38.3,90,29.83,10.0,SSE,9.2,-,N/A,,Overcast,160,2013-11-16 09:55:00
4:15 AM,41.0,38.7,91,29.83,7.0,SSE,5.8,-,N/A,,Overcast,160,2013-11-16 10:15:00
4:35 AM,41.2,39.2,93,29.82,4.0,SSE,8.1,-,N/A,,Overcast,150,2013-11-16 10:35:00
4:55 AM,42.1,40.5,94,29.81,2.5,SSE,9.2,-,N/A,,Overcast,150,2013-11-16 10:55:00
5:15 AM,42.8,41.4,95,29.79,2.5,SSE,11.5,-,N/A,,Overcast,150,2013-11-16 11:15:00
5:35 AM,44.1,42.8,95,29.78,4.0,SE,13.8,-,N/A,,Overcast,140,2013-11-16 11:35:00
5:55 AM,44.8,43.0,93,29.77,4.0,SSE,16.1,-,N/A,,Overcast,150,2013-11-16 11:55:00
6:15 AM,45.5,43.7,93,29.77,5.0,SE,13.8,-,N/A,,Overcast,140,2013-11-16 12:15:00
6:35 AM,46.0,43.9,92,29.77,5.0,SE,12.7,-,N/A,,Overcast,140,2013-11-16 12:35:00
6:55 AM,46.4,44.1,92,29.76,5.0,SE,12.7,-,N/A,,Overcast,140,2013-11-16 12:55:00
7:15 AM,46.4,44.2,92,29.76,3.0,SE,11.5,-,N/A,,Overcast,140,2013-11-16 13:15:00
7:35 AM,46.8,44.6,92,29.75,3.0,SE,12.7,-,N/A,,Overcast,140,2013-11-16 13:35:00
7:55 AM,47.3,44.8,91,29.73,4.0,SE,18.4,21.9,N/A,Rain,Light Rain,130,2013-11-16 13:55:00
8:15 AM,47.7,45.1,91,29.74,4.0,SSE,15.0,-,N/A,,Overcast,150,2013-11-16 14:15:00
8:35 AM,48.2,45.5,90,29.73,5.0,SSE,15.0,-,N/A,,Overcast,150,2013-11-16 14:35:00
8:55 AM,48.4,45.5,90,29.73,5.0,SSE,13.8,-,N/A,Rain,Light Rain,150,2013-11-16 14:55:00
9:15 AM,49.3,46.4,90,29.73,5.0,SSE,11.5,-,N/A,,Overcast,150,2013-11-16 15:15:00
9:35 AM,49.6,46.6,89,29.71,5.0,SSE,13.8,-,N/A,,Overcast,150,2013-11-16 15:35:00
9:55 AM,50.2,47.3,90,29.70,7.0,SSE,15.0,-,N/A,,Overcast,150,2013-11-16 15:55:00
10:15 AM,51.3,48.0,89,29.70,7.0,SSE,16.1,-,N/A,,Overcast,150,2013-11-16 16:15:00
10:35 AM,52.0,48.6,88,29.68,7.0,SSE,16.1,19.6,N/A,,Overcast,150,2013-11-16 16:35:00
10:55 AM,53.1,49.3,87,29.67,7.0,SSE,15.0,23.0,N/A,,Overcast,150,2013-11-16 16:55:00
11:15 AM,53.2,50.0,89,29.66,7.0,SSE,16.1,25.3,N/A,,Light Drizzle,150,2013-11-16 17:15:00
11:35 AM,53.6,50.4,89,29.65,7.0,SSE,16.1,23.0,N/A,Rain,Light Rain,150,2013-11-16 17:35:00
11:55 AM,54.5,50.9,88,29.63,7.0,SSE,20.7,26.5,N/A,Thunderstorm,Overcast,160,2013-11-16 17:55:00
12:15 PM,54.7,51.1,88,29.61,7.0,SSE,17.3,26.5,N/A,Rain-Thunderstorm,Rain,160,2013-11-16 18:15:00
12:35 PM,54.7,52.0,91,29.59,5.0,SSE,20.7,25.3,0.03,Rain,Light Rain,160,2013-11-16 18:35:00
12:55 PM,55.4,52.7,91,29.57,5.0,SSE,19.6,25.3,0.04,Rain,Light Rain,160,2013-11-16 18:55:00
1:15 PM,56.3,53.2,89,29.57,7.0,SSE,18.4,25.3,N/A,,Overcast,160,2013-11-16 19:15:00
1:35 PM,56.5,53.2,89,29.57,7.0,South,15.0,-,N/A,Rain,Light Rain,170,2013-11-16 19:35:00
1:55 PM,57.2,54.0,89,29.55,7.0,SSE,18.4,23.0,N/A,Rain-Thunderstorm,Rain,160,2013-11-16 19:55:00
2:15 PM,58.6,54.7,87,29.53,10.0,SSE,20.7,25.3,N/A,Thunderstorm,Overcast,160,2013-11-16 20:15:00
2:35 PM,58.1,54.0,86,29.51,10.0,SSE,21.9,27.6,N/A,Thunderstorm,Overcast,160,2013-11-16 20:35:00
2:55 PM,58.1,53.8,86,29.52,7.0,SSE,17.3,26.5,N/A,Rain-Thunderstorm,Light Thunderstorms and Rain,160,2013-11-16 20:55:00
3:15 PM,57.4,53.8,88,29.52,10.0,South,16.1,20.7,N/A,,Overcast,170,2013-11-16 21:15:00
3:35 PM,57.2,53.8,88,29.51,7.0,South,16.1,-,N/A,,Overcast,170,2013-11-16 21:35:00
3:55 PM,58.3,54.0,86,29.51,10.0,South,21.9,25.3,N/A,Thunderstorm,Overcast,170,2013-11-16 21:55:00
4:15 PM,58.1,53.6,85,29.51,10.0,South,20.7,26.5,N/A,Thunderstorm,Overcast,180,2013-11-16 22:15:00
4:35 PM,58.6,54.0,84,29.50,10.0,South,23.0,28.8,N/A,Rain,Light Rain,170,2013-11-16 22:35:00
4:55 PM,58.1,54.0,86,29.49,10.0,South,20.7,31.1,N/A,,Overcast,170,2013-11-16 22:55:00
5:15 PM,58.5,54.1,86,29.49,10.0,South,26.5,33.4,N/A,,Overcast,170,2013-11-16 23:15:00
5:35 PM,58.3,54.0,86,29.48,10.0,South,27.6,34.5,N/A,Thunderstorm,Mostly Cloudy,170,2013-11-16 23:35:00
5:55 PM,58.1,53.8,86,29.49,10.0,South,19.6,32.2,N/A,,Scattered Clouds,170,2013-11-16 23:55:00
6:15 PM,58.1,53.8,86,29.50,10.0,South,19.6,28.8,N/A,,Mostly Cloudy,180,2013-11-17 00:15:00
6:35 PM,58.5,53.8,84,29.50,10.0,South,19.6,25.3,N/A,,Overcast,170,2013-11-17 00:35:00
6:55 PM,58.3,53.8,85,29.50,10.0,South,19.6,26.5,N/A,,Overcast,170,2013-11-17 00:55:00
7:15 PM,57.9,53.6,86,29.50,10.0,South,18.4,26.5,N/A,,Overcast,180,2013-11-17 01:15:00
7:35 PM,58.1,53.8,86,29.51,10.0,South,20.7,27.6,N/A,Thunderstorm,Overcast,180,2013-11-17 01:35:00
7:55 PM,58.1,53.6,85,29.51,10.0,South,20.7,29.9,N/A,,Overcast,180,2013-11-17 01:55:00
8:15 PM,58.1,53.6,85,29.51,10.0,South,19.6,28.8,N/A,,Overcast,180,2013-11-17 02:15:00
8:35 PM,58.1,53.6,85,29.51,10.0,South,19.6,-,N/A,,Overcast,180,2013-11-17 02:35:00
8:55 PM,57.7,53.4,85,29.51,10.0,South,18.4,23.0,N/A,Thunderstorm,Overcast,190,2013-11-17 02:55:00
9:15 PM,57.9,53.4,85,29.51,10.0,South,20.7,26.5,N/A,,Overcast,180,2013-11-17 03:15:00
9:35 PM,57.7,53.2,85,29.51,10.0,South,20.7,26.5,N/A,,Mostly Cloudy,190,2013-11-17 03:35:00
9:55 PM,57.6,53.4,86,29.51,10.0,South,18.4,24.2,N/A,,Scattered Clouds,180,2013-11-17 03:55:00
10:15 PM,57.2,53.1,86,29.50,10.0,South,15.0,23.0,N/A,,Scattered Clouds,190,2013-11-17 04:15:00
10:35 PM,57.2,53.2,87,29.51,10.0,South,16.1,19.6,N/A,,Scattered Clouds,190,2013-11-17 04:35:00
10:55 PM,57.4,53.4,87,29.50,10.0,South,15.0,21.9,N/A,,Scattered Clouds,180,2013-11-17 04:55:00
11:15 PM,57.7,53.6,86,29.51,10.0,South,16.1,-,N/A,,Mostly Cloudy,190,2013-11-17 05:15:00
11:35 PM,57.7,53.2,85,29.51,10.0,South,13.8,-,N/A,,Mostly Cloudy,190,2013-11-17 05:35:00
11:55 PM,57.7,53.6,86,29.50,10.0,South,15.0,-,N/A,,Clear,190,2013-11-17 05:55:00